Change the Weather History Date:

Tuesday, April 2, 2013

  Actual Average Record
Temperature  
Mean Temperature 40 °F 52 °F  
Max Temperature 50 °F 63 °F 88 °F (2010)
Min Temperature 29 °F 41 °F 20 °F (1923)
Degree Days  
Heating Degree Days 25 14  
Month to date heating degree days 45 28  
Since 1 July heating degree days 4221 4125  
Cooling Degree Days 0 1  
Month to date cooling degree days 0 1  
Year to date cooling degree days 0 6  
Growing Degree Days 0 (Base 50)    
Moisture  
Dew Point 16 °F    
Average Humidity 43    
Maximum Humidity 64    
Minimum Humidity 21    
Precipitation  
Precipitation 0.00 in 0.12 in 1.16 in (1956)
Month to date precipitation 0.02 0.23  
Year to date precipitation 9.59 10.17  
Snow  
Snow 0.00 in - - ()
Month to date snowfall 0.0  
Since 1 September snowfall 12.4  
Snow Depth 0.00 in    
Sea Level Pressure  
Sea Level Pressure 30.20 in    
Wind  
Wind Speed 5 mph (NW)    
Max Wind Speed 13 mph    
Max Gust Speed 25 mph    
Visibility 10 miles    
Events      
T = Trace of Precipitation, MM = Missing Value Source: NWS Daily Summary

Daily Weather History Graph

Daily Weather History Graph

Search for Another Location

Airport or City:

Trip Planner

Search our weather history database for the weather conditions in past years. The results will help you decide how hot, cold, wet, or windy it might be!

Date:

Astronomy

Apr. 02, 2013 Rise Set
Actual Time 7:13 AM EDT 7:54 PM EDT
Civil Twilight 6:46 AM EDT 8:21 PM EDT
Nautical Twilight 6:15 AM EDT 8:53 PM EDT
Astronomical Twilight 5:42 AM EDT 9:25 PM EDT
Moon 1:55 AM EDT (4/2) 12:06 PM EDT (4/2)
Length of Visible Light 13h 34m
Length of Day
12h 41m
Waning Gibbous, 56% of the Moon is Illuminated
Apr 2
Waning Gibbous
Apr 3
Last Quarter
Apr 10
New
Apr 18
First Quarter
Apr 25
Full

Hourly Weather History & Observations

Time (EDT) Temp. Windchill Dew Point Humidity Pressure Visibility Wind Dir Wind Speed Gust Speed Precip Events Conditions
12:51 AM 37.9 °F 34.4 °F 19.9 °F 48% 30.11 in 10.0 mi NW 4.6 mph - N/A   Clear
1:51 AM 36.0 °F 33.3 °F 19.9 °F 52% 30.11 in 10.0 mi NNW 3.5 mph - N/A   Clear
2:51 AM 34.0 °F - 21.0 °F 59% 30.12 in 10.0 mi Calm Calm - N/A   Clear
3:51 AM 33.1 °F 27.7 °F 23.0 °F 66% 30.13 in 10.0 mi NNW 5.8 mph - N/A   Clear
4:51 AM 30.9 °F 26.2 °F 19.9 °F 64% 30.15 in 10.0 mi NNW 4.6 mph - N/A   Clear
5:51 AM 30.9 °F 27.5 °F 19.0 °F 61% 30.18 in 10.0 mi NNW 3.5 mph - N/A   Clear
6:51 AM 30.0 °F - 18.0 °F 61% 30.20 in 10.0 mi Calm Calm - N/A   Clear
7:51 AM 30.9 °F - 18.0 °F 59% 30.24 in 10.0 mi Calm Calm - N/A   Clear
8:51 AM 34.0 °F 31.0 °F 18.0 °F 52% 30.25 in 10.0 mi NE 3.5 mph - N/A   Clear
9:51 AM 36.0 °F 33.3 °F 17.1 °F 46% 30.27 in 10.0 mi North 3.5 mph - N/A   Clear
10:51 AM 37.9 °F 35.5 °F 16.0 °F 41% 30.27 in 10.0 mi North 3.5 mph - N/A   Clear
11:51 AM 39.0 °F 36.8 °F 16.0 °F 39% 30.26 in 10.0 mi WNW 3.5 mph - N/A   Clear
12:51 PM 43.0 °F 37.2 °F 16.0 °F 34% 30.25 in 10.0 mi WNW 10.4 mph 17.3 mph N/A   Clear
1:51 PM 44.1 °F 41.5 °F 15.1 °F 31% 30.22 in 10.0 mi Variable 4.6 mph - N/A   Clear
2:51 PM 46.0 °F 41.4 °F 14.0 °F 28% 30.20 in 10.0 mi WSW 9.2 mph 17.3 mph N/A   Clear
3:51 PM 48.9 °F - 16.0 °F 27% 30.17 in 10.0 mi NW 10.4 mph - N/A   Clear
4:51 PM 48.9 °F - 14.0 °F 25% 30.16 in 10.0 mi West 9.2 mph - N/A   Clear
5:51 PM 48.9 °F - 10.9 °F 22% 30.17 in 10.0 mi Variable 6.9 mph 25.3 mph N/A   Clear
6:51 PM 46.9 °F - 10.9 °F 23% 30.18 in 10.0 mi Variable 5.8 mph - N/A   Clear
7:51 PM 45.0 °F 42.6 °F 12.9 °F 27% 30.18 in 10.0 mi Variable 4.6 mph - N/A   Clear
8:51 PM 43.0 °F 40.3 °F 12.9 °F 30% 30.19 in 10.0 mi WNW 4.6 mph - N/A   Clear
9:51 PM 41.0 °F 39.0 °F 12.9 °F 32% 30.22 in 10.0 mi West 3.5 mph - N/A   Clear
10:51 PM 41.0 °F - 12.0 °F 31% 30.24 in 10.0 mi Calm Calm - N/A   Clear
11:51 PM 39.0 °F 36.8 °F 12.9 °F 34% 30.25 in 10.0 mi NW 3.5 mph - N/A   Clear